HELIOS 1B

Last updated on Sat Apr 13 2024 01:02:09 GMT+0100 (British Summer Time)

1 25977U 99064A 24103.57941350 .00001012 00000+0 12797-3 0 9994 2 25977 98.2543 333.0135 0002006 123.8356 236.3048 14.84154453581882
UTC large
Height (km)
Speed (km/s)
/
Latitude / Longitude
Inclination (degrees)
Orbital Period (minutes)
Azimuth
Elevation
Range (km)
Doppler Factor

Next 0 passes for location: London (51.5072 / 0.1276)

Sorry there are no passes over London.